This is the latest recevied weather packets stored in our database for station/object KW6V-15. If no packets are shown the sender has not sent any weather packets the latest 1 day(s).
| Time | Temp. | Humidity | Pressure | Rain* | Wind** | Luminosity | Snow |
|---|---|---|---|---|---|---|---|
| 1778085018 | 12.78° C | 88% | 1021.4 hPa | 0 mm | - | - | - |
| 1778083258 | 12.22° C | 89% | 1021.3 hPa | 0 mm | - | - | - |
| 1778077817 | 11.11° C | 91% | 1021.2 hPa | 0 mm | - | - | - |
| 1778076033 | 11.11° C | 92% | 1020.8 hPa | 0 mm | - | - | - |
| 1778074243 | 11.11° C | 91% | 1020.6 hPa | 0 mm | - | - | - |
| 1778072417 | 11.11° C | 91% | 1020.6 hPa | 0 mm | - | - | - |
| 1778068866 | 11.11° C | 91% | 1020.4 hPa | 0 mm | - | - | - |
| 1778063447 | 11.67° C | 90% | 1019.7 hPa | 0 mm | - | - | - |
| 1778061640 | 11.67° C | 90% | 1019.6 hPa | 0 mm | - | - | - |
| 1778056221 | 11.67° C | 89% | 1019.4 hPa | 0 mm | - | - | - |
| 1778054428 | 11.67° C | 89% | 1019.5 hPa | 0 mm | - | - | - |
| 1778052625 | 11.67° C | 89% | 1019.2 hPa | 0 mm | - | - | - |
| 1778049015 | 12.22° C | 89% | 1018.7 hPa | 0 mm | - | - | - |
| 1778047251 | 11.67° C | 89% | 1018.5 hPa | 0 mm | - | - | - |
| 1778045435 | 12.22° C | 89% | 1018.4 hPa | 0 mm | - | - | - |
| 1778043641 | 11.67° C | 88% | 1018.3 hPa | 0 mm | - | - | - |
| 1778038242 | 12.22° C | 87% | 1017 hPa | 0 mm | - | - | - |
| 1778029278 | 13.89° C | 84% | 1016.2 hPa | 0 mm | - | - | - |
| 1778025641 | 13.89° C | 85% | 1016.2 hPa | 0 mm | - | - | - |
| 1778023837 | 13.89° C | 85% | 1016.3 hPa | 0 mm | - | - | - |
| 1778018441 | 15° C | 82% | 1016.4 hPa | 0 mm | - | - | - |
| 1778014851 | 15° C | 82% | 1016.2 hPa | 0 mm | - | - | - |
* Rain latest hour (hover to see other rain measurements)
** Current wind speed in m/s (hover to see current wind gust speed)